WE3WEE Weather Reports


Display with metric or nautical units.
time (UTC)temp
F
wind
direction
speed
MPH
gust
MPH
rain 1hr
in
rain 24hr
in
rain mn
in
humidity
%
barometer
mb
20260507020713 48 344 0.0 0.0 0.00 0.61 0.61 96 1011.7
20260507020208 48 344 0.0 0.0 0.00 0.61 0.61 96 1011.7
20260507015707 48 344 0.0 0.0 0.00 0.61 0.61 96 1011.7
20260507015204 49 344 0.0 0.0 0.00 0.61 0.61 96 1011.7
20260507014700 49 344 0.0 0.0 0.00 0.61 0.61 96 1011.7
20260507014156 49 344 0.0 0.0 0.00 0.61 0.61 96 1011.7
20260507013653 49 344 0.0 0.0 0.00 0.61 0.61 95 1011.7
20260507013150 49 344 0.0 0.0 0.00 0.61 0.61 95 1011.7
20260507012648 49 344 0.0 0.0 0.00 0.61 0.61 95 1011.7
20260507012143 49 344 0.0 0.0 0.00 0.61 0.61 95 1011.7
20260507011641 49 344 0.0 0.0 0.00 0.61 0.61 95 1011.7
20260507011137 49 344 0.0 0.0 0.00 0.61 0.61 94 1011.7
20260507010632 49 344 0.0 0.0 0.00 0.61 0.61 94 1011.7
20260507010128 49 344 0.0 0.0 0.00 0.61 0.61 94 1011.7
20260507005626 49 344 0.0 0.0 0.00 0.61 0.61 94 1011.7
20260507005122 49 344 0.0 0.0 0.00 0.61 0.61 93 1011.7
20260507004619 49 344 0.0 0.0 0.00 0.61 0.61 95 1011.7
20260507004117 49 344 0.0 0.0 0.00 0.61 0.61 94 1011.7
20260507003612 49 344 0.0 0.0 0.00 0.61 0.61 94 1010.6
20260507003107 49 344 0.0 0.0 0.00 0.61 0.61 94 1010.6
20260507002604 49 344 0.0 0.0 0.00 0.61 0.61 94 1010.6
20260507002100 49 344 0.0 0.0 0.00 0.61 0.61 94 1010.6
20260507001557 49 344 0.0 0.0 0.00 0.61 0.61 94 1010.6
20260507001054 49 344 0.0 0.0 0.00 0.61 0.61 94 1010.6
20260507000550 49 344 0.0 0.0 0.00 0.61 0.61 94 1010.6
20260507000046 49 344 0.0 0.0 0.00 0.61 0.61 94 1010.6
20260506235544 49 347 2.0 2.0 0.00 0.61 0.61 94 1010.6
20260506235039 49 18 2.0 2.0 0.00 0.61 0.61 94 1010.6
20260506234537 49 36 1.0 1.0 0.00 0.61 0.61 94 1010.6
20260506234034 50 19 0.0 0.0 0.00 0.61 0.61 94 1010.6
20260506233531 50 21 2.0 2.0 0.00 0.61 0.61 93 1009.6
20260506233027 50 20 2.0 2.0 0.00 0.61 0.61 94 1009.6
20260506232523 50 59 5.0 5.0 0.00 0.61 0.61 94 1009.6
20260506232019 50 19 1.0 1.0 0.00 0.61 0.61 94 1009.6
20260506231517 50 19 1.0 1.0 0.00 0.61 0.61 94 1009.6
20260506231015 50 8 0.0 0.0 0.00 0.61 0.61 94 1009.6
20260506230510 51 7 0.0 0.0 0.00 0.61 0.61 94 1009.6
20260506230009 51 7 0.0 0.0 0.00 0.61 0.61 94 1009.6
20260506225505 51 8 0.0 0.0 0.00 0.61 0.61 94 1009.6
20260506225001 51 7 2.0 2.0 0.00 0.61 0.61 93 1009.6
20260506224458 51 20 2.0 2.0 0.00 0.61 0.61 93 1009.6
20260506223955 51 8 0.0 0.0 0.00 0.61 0.61 93 1009.6
20260506223450 51 342 0.0 0.0 0.00 0.61 0.61 94 1009.6
20260506222947 51 357 2.0 2.0 0.00 0.61 0.61 93 1009.6
20260506222444 51 338 3.0 5.0 0.00 0.61 0.61 93 1009.6
20260506221935 51 341 4.0 5.0 0.00 0.61 0.61 94 1008.5
20260506221432 52 346 6.0 7.0 0.00 0.61 0.61 93 1008.5
20260506220930 52 357 3.0 3.0 0.00 0.61 0.61 94 1008.5
20260506220426 53 344 5.0 5.0 0.01 0.61 0.61 95 1008.5
20260506215922 53 328 3.0 4.0 0.01 0.61 0.61 94 1008.5
20260506215418 54 335 4.0 5.0 0.01 0.61 0.61 95 1008.5
20260506214914 55 340 5.0 6.0 0.00 0.60 0.60 94 1007.5
20260506214411 57 343 9.0 10.0 0.00 0.60 0.60 94 1007.5
20260506213909 59 29 6.0 7.0 0.00 0.60 0.60 95 1007.5
20260506213407 60 326 4.0 5.0 0.00 0.60 0.60 97 1007.5
20260506212904 60 320 0.0 0.0 0.00 0.60 0.60 98 1007.5
20260506212359 60 274 2.0 2.0 0.00 0.60 0.60 98 1007.5
20260506211854 60 74 0.0 0.0 0.00 0.60 0.60 98 1006.5
20260506211351 60 301 0.0 0.0 0.00 0.60 0.60 98 1006.5
20260506210848 60 261 2.0 2.0 0.00 0.60 0.60 98 1006.5
20260506210345 60 292 1.0 1.0 0.07 0.60 0.60 99 1006.5
20260506205842 60 249 0.0 0.0 0.06 0.59 0.59 99 1006.5
20260506205338 60 250 0.0 0.0 0.05 0.58 0.58 99 1006.5
20260506204835 60 240 0.0 0.0 0.03 0.56 0.56 98 1006.5
20260506204332 60 240 2.0 2.0 0.03 0.56 0.56 98 1006.5
20260506203830 60 250 2.0 2.0 0.02 0.55 0.55 98 1006.5
20260506203327 60 235 0.0 0.0 0.01 0.54 0.54 98 1006.5
20260506202823 60 249 2.0 2.0 0.01 0.54 0.54 98 1006.5
20260506202321 60 273 0.0 0.0 0.01 0.54 0.54 98 1006.5
20260506201817 60 240 0.0 0.0 0.01 0.54 0.54 97 1006.5
20260506201315 60 263 0.0 0.0 0.01 0.54 0.54 97 1006.5
20260506200811 60 0 0.0 0.0 0.00 0.53 0.53 97 1006.5
20260506200307 60 281 0.0 0.0 0.00 0.53 0.53 96 1006.5
20260506195803 61 262 0.0 0.0 0.00 0.53 0.53 96 1006.5
20260506195301 61 225 3.0 5.0 0.00 0.53 0.53 96 1006.5
20260506194758 61 227 0.0 0.0 0.00 0.53 0.53 95 1006.5
20260506194254 61 227 1.0 1.0 0.00 0.53 0.53 94 1006.5
20260506193752 61 219 2.0 7.0 0.00 0.53 0.53 95 1006.5
20260506193248 61 241 4.0 6.0 0.00 0.53 0.53 95 1006.5
20260506192745 61 228 8.0 9.0 0.00 0.53 0.53 95 1006.5
20260506192242 61 219 10.0 13.0 0.00 0.53 0.53 95 1006.5
20260506191738 61 225 5.0 6.0 0.00 0.53 0.53 95 1006.5
20260506191235 60 226 8.0 8.0 0.00 0.53 0.53 96 1006.5
20260506190732 60 225 7.0 10.0 0.00 0.53 0.53 96 1006.5
20260506190228 60 240 5.0 8.0 0.00 0.53 0.53 96 1006.5
20260506185726 60 239 9.0 10.0 0.00 0.53 0.53 96 1006.5
20260506185222 60 268 2.0 2.0 0.00 0.53 0.53 97 1006.5
20260506184720 60 226 6.0 6.0 0.00 0.53 0.53 97 1007.5
20260506184217 60 237 6.0 7.0 0.00 0.53 0.53 97 1007.5
20260506183713 60 244 3.0 5.0 0.00 0.53 0.53 97 1007.5
20260506183209 60 227 6.0 8.0 0.00 0.53 0.53 97 1007.5
20260506182707 60 228 7.0 7.0 0.00 0.53 0.53 98 1007.5
20260506182203 60 222 6.0 8.0 0.00 0.53 0.53 99 1007.5
20260506181701 59 241 5.0 6.0 0.00 0.53 0.53 99 1007.5
20260506181158 59 228 5.0 6.0 0.00 0.53 0.53 99 1007.5
20260506180655 59 255 2.0 3.0 0.00 0.53 0.53 99 1007.5
20260506180151 59 236 5.0 7.0 0.00 0.53 0.53 99 1007.5
20260506175648 59 256 7.0 11.0 0.00 0.53 0.53 99 1007.5
20260506175144 59 225 3.0 5.0 0.00 0.53 0.53 99 1007.5
20260506174638 59 251 6.0 7.0 0.00 0.53 0.53 99 1007.5
20260506174134 59 201 5.0 7.0 0.00 0.53 0.53 99 1007.5
20260506173632 59 249 8.0 8.0 0.00 0.53 0.53 99 1007.5
20260506173129 59 225 9.0 10.0 0.00 0.53 0.53 99 1007.5
20260506172626 58 206 5.0 5.0 0.00 0.53 0.53 99 1007.5
20260506172121 58 222 1.0 1.0 0.00 0.53 0.53 99 1007.5
20260506171619 58 226 3.0 5.0 0.00 0.53 0.53 99 1007.5
20260506171116 59 227 6.0 6.0 0.00 0.53 0.53 99 1007.5
20260506170614 59 227 2.0 2.0 0.00 0.53 0.53 99 1007.5
20260506170105 58 224 8.0 8.0 0.00 0.53 0.53 98 1007.5
20260506165603 58 219 6.0 6.0 0.02 0.52 0.52 98 1007.5
20260506165054 58 244 5.0 7.0 0.02 0.52 0.52 98 1007.5
20260506164551 58 238 6.0 7.0 0.01 0.51 0.51 98 1007.5
20260506164048 58 226 1.0 1.0 0.00 0.50 0.50 98 1007.5
20260506163544 58 219 1.0 1.0 0.00 0.50 0.50 98 1007.5
20260506163039 58 264 4.0 5.0 0.00 0.50 0.50 98 1007.5
20260506162536 58 240 6.0 7.0 0.00 0.50 0.50 98 1007.5
20260506162033 58 238 4.0 5.0 0.00 0.50 0.50 98 1007.5
20260506161531 58 227 3.0 4.0 0.00 0.50 0.50 98 1007.5
20260506161022 58 240 4.0 5.0 0.10 0.50 0.50 98 1007.5
20260506160520 58 235 3.0 3.0 0.09 0.49 0.49 97 1007.5
20260506160017 58 223 5.0 5.0 0.09 0.49 0.49 97 1007.5
20260506155515 58 234 2.0 3.0 0.08 0.48 0.48 97 1007.5
20260506153646 58 208 3.0 3.0 0.05 0.45 0.45 97 1007.5
20260506153143 58 200 4.0 5.0 0.05 0.45 0.45 97 1007.5
20260506152640 58 225 4.0 5.0 0.04 0.44 0.44 97 1007.5
20260506152138 58 234 2.0 2.0 0.03 0.43 0.43 97 1007.5
20260506151636 58 209 6.0 6.0 0.02 0.42 0.42 97 1007.5
20260506151132 58 238 4.0 5.0 0.16 0.40 0.40 97 1007.5
20260506150630 58 245 3.0 3.0 0.14 0.38 0.38 98 1007.5
20260506150126 58 236 6.0 9.0 0.12 0.36 0.36 97 1007.5
20260506145623 58 226 3.0 5.0 0.10 0.34 0.34 97 1007.5
20260506145120 58 215 2.0 2.0 0.09 0.33 0.33 97 1007.5
20260506144618 58 226 3.0 3.0 0.07 0.31 0.31 97 1007.5
20260506144114 58 225 2.0 3.0 0.06 0.30 0.30 97 1007.5
20260506143612 58 210 4.0 4.0 0.04 0.28 0.28 96 1007.5
20260506143110 58 234 5.0 5.0 0.03 0.27 0.27 96 1007.5
20260506142608 58 208 6.0 7.0 0.02 0.26 0.26 96 1007.5
20260506142106 58 225 3.0 3.0 0.01 0.25 0.25 96 1007.5
20260506141603 58 227 2.0 3.0 0.01 0.25 0.25 96 1007.5
20260506141101 58 209 0.0 0.0 0.12 0.24 0.24 97 1008.5
20260506140558 58 203 0.0 0.0 0.11 0.23 0.23 97 1008.5
20260506140055 58 226 0.0 0.0 0.10 0.22 0.22 97 1008.5
20260506135552 58 224 0.0 0.0 0.09 0.21 0.21 98 1007.5
20260506135049 58 240 0.0 0.0 0.09 0.21 0.21 98 1007.5
20260506134545 57 241 0.0 0.0 0.08 0.20 0.20 98 1007.5
20260506134041 57 240 0.0 0.0 0.07 0.19 0.19 98 1007.5
20260506133538 57 240 0.0 0.0 0.07 0.19 0.19 98 1007.5
20260506133035 57 240 0.0 0.0 0.06 0.18 0.18 98 1007.5
20260506132533 57 242 0.0 0.0 0.05 0.17 0.17 97 1008.5
20260506132030 57 242 0.0 0.0 0.03 0.15 0.15 97 1008.5
20260506131527 57 242 0.0 0.0 0.01 0.13 0.13 97 1008.5
20260506131023 57 241 0.0 0.0 0.12 0.12 0.12 96 1008.5
20260506130520 57 241 0.0 0.0 0.10 0.10 0.10 96 1008.5
20260506130018 58 241 0.0 0.0 0.09 0.09 0.09 95 1008.5
20260506125516 58 241 0.0 0.0 0.07 0.07 0.07 95 1008.5
20260506125013 58 241 0.0 0.0 0.06 0.06 0.06 94 1008.5
20260506124511 57 249 0.0 0.0 0.05 0.05 0.05 93 1008.5
20260506124009 57 242 0.0 0.0 0.04 0.04 0.04 93 1008.5
20260506123506 56 250 0.0 0.0 0.04 0.04 0.04 93 1008.5
20260506123004 56 332 0.0 0.0 0.03 0.03 0.03 94 1008.5
20260506122501 57 332 0.0 0.0 0.02 0.02 0.02 94 1008.5
20260506121959 57 332 0.0 0.0 0.01 0.01 0.01 94 1008.5
20260506121456 57 332 0.0 0.0 0.01 0.01 0.01 93 1008.5
20260506120952 57 332 0.0 0.0 0.00 0.00 0.00 92 1008.5
20260506120450 57 332 0.0 0.0 0.00 0.00 0.00 92 1008.5
20260506115947 57 332 0.0 0.0 0.00 0.00 0.00 92 1008.5
20260506115445 57 332 0.0 0.0 0.00 0.00 0.00 92 1008.5
20260506114943 58 332 0.0 0.0 0.00 0.00 0.00 91 1008.5
20260506114440 58 332 0.0 0.0 0.00 0.00 0.00 90 1008.5
20260506113939 58 332 0.0 0.0 0.00 0.00 0.00 87 1008.5
20260506113436 58 332 0.0 0.0 0.00 0.00 0.00 89 1007.5
20260506112932 58 332 0.0 0.0 0.00 0.00 0.00 87 1007.5
20260506112430 58 332 0.0 0.0 0.00 0.00 0.00 86 1007.5
20260506111927 58 332 0.0 0.0 0.00 0.00 0.00 87 1007.5
20260506111425 58 332 0.0 0.0 0.00 0.00 0.00 86 1007.5
20260506110922 58 332 0.0 0.0 0.00 0.00 0.00 86 1007.5
20260506110420 58 332 0.0 0.0 0.00 0.00 0.00 85 1007.5
20260506105916 58 332 0.0 0.0 0.00 0.00 0.00 85 1007.5
20260506105413 58 332 0.0 0.0 0.00 0.00 0.00 86 1007.5
20260506104910 58 332 0.0 0.0 0.00 0.00 0.00 82 1007.5
20260506104408 58 332 0.0 0.0 0.00 0.00 0.00 84 1007.5
20260506103906 58 332 0.0 0.0 0.00 0.00 0.00 83 1007.5
20260506103403 58 332 0.0 0.0 0.00 0.00 0.00 86 1007.5
20260506102900 58 332 0.0 0.0 0.00 0.00 0.00 85 1007.5
20260506102358 58 332 0.0 0.0 0.00 0.00 0.00 83 1007.5
20260506101855 58 10 0.0 0.0 0.00 0.00 0.00 81 1006.5
20260506101351 57 10 0.0 0.0 0.00 0.00 0.00 81 1006.5
20260506100849 57 10 0.0 0.0 0.00 0.00 0.00 84 1006.5
20260506100347 57 10 0.0 0.0 0.00 0.00 0.00 85 1007.5
20260506095845 57 10 0.0 0.0 0.00 0.00 0.00 86 1007.5
20260506095342 57 10 0.0 0.0 0.00 0.00 0.00 85 1007.5
20260506094839 57 10 0.0 0.0 0.00 0.00 0.00 84 1007.5
20260506094338 57 10 0.0 0.0 0.00 0.00 0.00 84 1007.5
20260506093835 57 10 0.0 0.0 0.00 0.00 0.00 85 1007.5
20260506093332 57 10 0.0 0.0 0.00 0.00 0.00 87 1007.5
20260506092830 57 10 0.0 0.0 0.00 0.00 0.00 87 1007.5
20260506092328 57 10 0.0 0.0 0.00 0.00 0.00 86 1007.5
20260506091824 0 0.0 0.0 0.00 0.00 0.00 1007.5
20260506091322 58 10 0.0 0.0 0.00 0.00 0.00 83 1007.5
20260506090819 58 10 0.0 0.0 0.00 0.00 0.00 83 1007.5
20260506090317 58 10 0.0 0.0 0.00 0.00 0.00 83 1007.5
20260506085813 57 10 0.0 0.0 0.00 0.00 0.00 84 1007.5
20260506085309 57 10 0.0 0.0 0.00 0.00 0.00 84 1007.5
20260506084806 0 0.0 0.0 0.00 0.00 0.00 1007.5
20260506084302 57 18 0.0 0.0 0.00 0.00 0.00 84 1007.5
20260506083759 57 18 0.0 0.0 0.00 0.00 0.00 84 1007.5
20260506083257 57 18 0.0 0.0 0.00 0.00 0.00 84 1007.5
20260506082754 58 18 0.0 0.0 0.00 0.00 0.00 85 1007.5
20260506082250 0 0.0 0.0 0.00 0.00 0.00 1007.5
20260506081747 0 0.0 0.0 0.00 0.00 0.00 1007.5
20260506081245 58 18 0.0 0.0 0.00 0.00 0.00 85 1007.5
20260506080743 58 18 0.0 0.0 0.00 0.00 0.00 85 1007.5
20260506080239 58 18 0.0 0.0 0.00 0.00 0.00 85 1007.5
20260506073223 58 316 0.0 0.0 0.00 0.00 0.00 75 1007.5
20260506072720 57 291 0.0 0.0 0.00 0.00 0.00 77 1007.5
20260506072218 0 0.0 0.0 0.00 0.00 0.00 1007.5
20260506071715 0 0.0 0.0 0.00 0.00 0.00 1007.5
20260506071213 0 0.0 0.0 0.00 0.00 0.00 1007.5
20260506070709 0 0.0 0.0 0.00 0.00 0.00 1007.5
20260506070207 0 0.0 0.0 0.00 0.00 0.00 1008.5
20260506062143 0 0.0 0.0 0.00 0.00 0.00 1008.5
20260506061639 0 0.0 0.0 0.00 0.00 0.00 1008.5
20260506061137 0 0.0 0.0 0.00 0.00 0.00 1008.5
20260506060635 0 0.0 0.0 0.00 0.00 0.00 1008.5
20260506060132 0 0.0 0.0 0.00 0.00 0.00 1008.5
20260506051104 0 0.0 0.0 0.00 0.00 0.00 1008.5
20260506050602 0 0.0 0.0 0.00 0.00 0.00 1008.5
20260506045052 0 0.0 0.0 0.00 0.00 0.00 1008.5
20260506044550 0 0.0 0.0 0.00 0.00 0.00 1008.5
20260506044046 0 0.0 0.0 0.00 0.00 0.00 1008.5
20260506043544 55 291 0.0 0.0 0.00 0.00 0.00 86 1008.5
20260506043042 55 291 0.0 0.0 0.00 0.00 0.00 86 1008.5
20260506042541 55 291 0.0 0.0 0.00 0.00 0.00 86 1008.5
20260506042038 55 291 0.0 0.0 0.00 0.00 0.00 86 1008.5
20260506041537 55 291 0.0 0.0 0.00 0.00 0.00 86 1008.5
20260506041033 55 291 0.0 0.0 0.00 0.00 0.00 87 1009.6
20260506040531 55 291 0.0 0.0 0.00 0.00 0.00 86 1009.6
20260506040027 55 291 0.0 0.0 0.00 0.00 0.00 86 1009.6
20260506035524 55 291 0.0 0.0 0.00 0.00 0.00 86 1008.5
20260506035021 55 291 0.0 0.0 0.00 0.00 0.00 86 1008.5
20260506034518 55 291 0.0 0.0 0.00 0.00 0.00 86 1008.5
20260506034015 55 291 0.0 0.0 0.00 0.00 0.00 86 1008.5
20260506033512 56 291 0.0 0.0 0.00 0.00 0.00 85 1008.5
20260506033009 56 291 0.0 0.0 0.00 0.00 0.00 85 1008.5
20260506032506 57 291 0.0 0.0 0.00 0.00 0.00 83 1008.5
20260506032003 57 291 0.0 0.0 0.00 0.00 0.00 82 1008.5
20260506031501 57 291 0.0 0.0 0.00 0.00 0.00 82 1008.5
20260506030958 57 291 0.0 0.0 0.00 0.00 0.00 82 1009.6
20260506030455 58 291 0.0 0.0 0.00 0.00 0.00 82 1009.6
20260506025952 58 291 0.0 0.0 0.00 0.00 0.00 81 1009.6
20260506025449 58 291 0.0 0.0 0.00 0.00 0.00 81 1008.5
20260506024946 58 291 0.0 0.0 0.00 0.00 0.00 81 1008.5
20260506024443 59 291 0.0 0.0 0.00 0.00 0.00 80 1008.5
20260506023938 59 291 0.0 0.0 0.00 0.00 0.00 79 1008.5
20260506023436 59 291 0.0 0.0 0.00 0.00 0.00 78 1008.5
20260506022932 60 291 0.0 0.0 0.00 0.00 0.00 77 1008.5
20260506022430 60 291 0.0 0.0 0.00 0.00 0.00 75 1008.5
20260506021928 61 291 0.0 0.0 0.00 0.00 0.00 75 1008.5
20260506021425 61 291 0.0 0.0 0.00 0.00 0.00 74 1008.5